Meteo Giornale » Osservazioni meteo Stati Uniti (USA) » West Point

ore: 07:55 - Osservazioni Meteo West Point
Lat. 37° 31' N Lon. 76° 46' W Alt. 7 metri s.l.m.

sereno

23 °C

Sereno

Temp. 24 Ore

21 °C

33 °C

Nord

0 Km/h

Dew point 23 °C

Umidità 100 %

Visibilità  10 Km

Il sole sorge alle ore 06:37

Il sole tramonta alle ore 19:36

Data e Ora Cielo e Fenomeni T °C DP °C Um. % Pres. hPa Vis. km Vento km/h
Oggi h: 07:55 sereno Sereno 23 23 100 1018 10 N 0
Oggi h: 07:35 sereno Sereno 22 22 100 1017 10 N 0
Oggi h: 07:15 sereno Sereno 21 21 100 1017 11 N 0
Oggi h: 06:55 nebbia Cielo Invisibile 21 21 100 1018 2 N 0
Oggi h: 06:35 sereno Sereno 22 21 94 1017 11 N 0
Oggi h: 06:15 nebbia Cielo Invisibile 22 22 100 1017 2 N 0
Oggi h: 05:55 sereno Sereno 21 21 100 1017 10 N 0
Oggi h: 05:35 sereno Sereno 21 21 100 1017 11 N 0
Oggi h: 05:15 sereno Sereno 22 21 94 1017 8 N 0
Oggi h: 04:55 sereno Sereno 22 22 100 1017 8 N 0
Oggi h: 04:35 sereno Sereno 22 22 100 1017 2 N 0
Oggi h: 04:15 sereno Sereno 22 22 100 1017 11 N 0
Oggi h: 03:55 sereno Sereno 22 22 100 1017 5 N 0
Oggi h: 03:35 nebbia Cielo Invisibile 22 22 100 1017 2 N 0
Oggi h: 03:15 sereno Sereno 22 22 100 1018 2 N 0
Oggi h: 02:55 sereno Sereno 22 22 100 1018 3 N 0
Oggi h: 02:35 nuvoloso Nuvoloso 22 22 100 1018 5 N 0
Oggi h: 02:15 nuvoloso Nuvoloso 22 22 100 1018 6 N 0
Oggi h: 01:55 sereno Sereno 23 23 100 1018 8 N 0
Oggi h: 01:35 nuvoloso Nuvoloso 23 23 100 1018 8 N 0
Oggi h: 01:15 molto_nuvoloso Molto Nuvoloso 23 23 100 1018 6 N 0
Oggi h: 00:55 molto_nuvoloso Molto Nuvoloso 23 23 100 1018 11 N 0
Oggi h: 00:35 nuvoloso Nuvoloso 23 23 100 1018 8 N 0
Oggi h: 00:15 sereno Sereno 24 23 94 1018 10 N 0
Ieri h: 23:55 sereno Sereno 24 24 100 1018 10 S/SO 7.4
Ieri h: 23:35 sereno Sereno 24 23 94 1018 11 N 0
Ieri h: 23:15 nebbia Cielo Invisibile 23 23 100 1018 2 N 0
Ieri h: 22:55 sereno Sereno 23 23 100 1018 5 N 0
Ieri h: 22:35 nebbia Cielo Invisibile 23 23 100 1018 5 N 0
Ieri h: 22:15 sereno Sereno 23 23 100 1018 11 N 0
Ieri h: 21:55 sereno Sereno 24 23 94 1018 8 N 0
Ieri h: 21:35 sereno Sereno 24 23 94 1018 6 N 5.5
Ieri h: 21:15 sereno Sereno 24 23 94 1018 11 N 0
Ieri h: 20:55 nuvoloso Nuvoloso 24 23 94 1018 10 N 0
Ieri h: 20:35 nuvoloso Nuvoloso 24 23 94 1018 11 N 0
Ieri h: 20:15 coperto Coperto 24 23 94 1019 8 N 5.5
Ieri h: 19:55 coperto Coperto 24 24 100 1019 2 N 7.4
Ieri h: 19:35 coperto Coperto 25 24 94 1019 2 N 5.5
Ieri h: 19:15 coperto Coperto 25 24 94 1019 2 N 5.5
Ieri h: 18:55 molto_nuvoloso Molto Nuvoloso 26 24 88 1018 8 N 0
Ieri h: 18:35 sereno Sereno 26 24 88 1018 8 E 7.4
Ieri h: 18:15 nuvoloso Nuvoloso 26 24 88 1018 11 E/SE 7.4
Ieri h: 17:55 coperto Coperto 26 23 83 1018 11 S 11.1
Ieri h: 17:35 coperto Coperto 25 22 83 1018 2 S/SE 18.5
Ieri h: 17:15 coperto Coperto 30 22 62 1017 11 N 5.5
Ieri h: 16:55 molto_nuvoloso Molto Nuvoloso 32 21 52 1017 10 E/NE 9.3
Ieri h: 16:35 nuvoloso Nuvoloso 33 22 52 1018 10 E 9.3
Ieri h: 16:15 sereno Sereno 33 22 52 1017 10 E 11.1
Ieri h: 15:55 sereno Sereno 32 22 55 1018 10 N 5.5
Ieri h: 15:35 nuvoloso Nuvoloso 31 22 58 1018 10 E/NE 11.1
Ieri h: 15:15 nuvoloso Nuvoloso 30 20 55 1018 11 E/NE 13
Ieri h: 14:55 nuvoloso Nuvoloso 32 21 52 1018 10 N 0
Ieri h: 14:35 molto_nuvoloso Molto Nuvoloso 32 20 49 1018 11 O 7.4
Ieri h: 14:15 nuvoloso Nuvoloso 33 20 46 1018 10 O/NO 13
Ieri h: 13:55 sereno Sereno 32 21 52 1018 10 O/SO 7.4
Ieri h: 13:35 sereno Sereno 32 22 55 1018 11 O/SO 9.3
Ieri h: 13:15 sereno Sereno 32 22 55 1018 11 O 7.4
Ieri h: 12:55 sereno Sereno 31 22 58 1019 11 N 0
Ieri h: 12:35 sereno Sereno 31 22 58 1019 11 N 0
Ieri h: 12:15 sereno Sereno 30 21 58 1019 10 N 0
Ieri h: 11:55 sereno Sereno 30 21 58 1019 10 N 0
Ieri h: 11:35 sereno Sereno 30 22 62 1019 11 N 0
Ieri h: 11:15 sereno Sereno 30 22 62 1019 10 N 0
Ieri h: 10:55 sereno Sereno 29 22 66 1019 11 N 5.5
Ieri h: 10:35 sereno Sereno 28 22 69 1019 10 N 5.5
Ieri h: 10:15 sereno Sereno 28 22 69 1019 11 N 0
Ieri h: 09:55 sereno Sereno 27 22 74 1019 11 O/NO 7.4
Ieri h: 09:35 sereno Sereno 27 22 74 1019 11 O 13
Ieri h: 09:15 sereno Sereno 26 22 78 1019 11 N 5.5
Ieri h: 08:55 sereno Sereno 26 22 78 1019 11 O/SO 11.1
Ieri h: 08:35 sereno Sereno 25 22 83 1019 11 N 5.5